Wind_Speed
22 22 22 22 23 23 22 20 19 18 19 19 19 20 20 20 19 20 20 20 20 21 20 20 20 20 20 20 20 20 19 19 19 18 18 18 18 18 18 18 18 18 18 18 18 17 17 16 16
22 23 23 24 24 24 22 20 20 20 20 21 21 22 22 21 21 21 21 23 23 23 23 23 22 23 22 22 22 22 21 21 21 21 20 20 19 19 19 19 19 20 20 19 19 19 19 19 18
22 23 23 24 24 24 22 22 21 21 22 22 23 24 24 23 23 23 24 25 25 25 25 24 24 25 25 24 24 24 23 23 23 23 22 21 21 20 20 21 20 21 21 21 21 20 20 20 19
23 23 24 25 24 23 23 22 22 22 23 24 24 25 26 26 25 25 26 27 27 27 27 26 26 26 26 26 26 26 25 25 25 25 24 23 23 22 22 23 22 22 22 22 22 22 21 21 20
24 24 25 25 24 24 23 24 24 24 25 25 26 27 27 27 27 28 28 28 28 28 28 28 27 27 27 28 28 28 27 27 27 27 26 26 25 25 25 25 24 24 23 23 23 23 22 22 22
24 25 26 25 25 25 25 26 26 26 27 27 28 29 29 29 29 30 30 30 30 30 29 29 29 29 29 29 29 29 29 29 29 29 28 28 27 27 27 26 26 26 25 24 25 24 24 24 24
25 26 27 27 26 27 27 28 28 28 29 29 29 30 30 30 31 31 32 32 32 31 31 31 30 30 30 30 31 31 31 30 30 30 30 30 29 29 28 28 28 27 26 26 26 26 27 26 26
26 27 28 28 28 28 28 29 29 29 30 30 31 31 31 31 31 31 32 34 34 34 33 32 32 31 31 31 32 32 32 31 31 32 32 31 31 30 30 30 30 29 28 28 28 28 28 28 28
27 28 29 29 29 29 29 29 30 30 30 31 32 32 32 32 32 32 33 34 34 34 34 33 33 33 33 33 33 34 33 32 32 33 33 33 33 32 32 32 31 31 31 30 30 30 30 30 30
27 28 30 31 31 31 31 31 31 31 32 32 33 33 34 33 33 33 33 34 34 34 34 34 34 34 34 34 34 34 34 34 33 33 34 34 34 34 33 33 33 33 33 33 32 32 32 32 32
28 29 30 31 31 32 32 32 32 32 32 33 33 34 34 34 34 34 34 34 34 35 34 34 34 35 35 35 34 35 35 34 34 34 35 36 36 35 35 35 35 35 35 35 35 34 34 34 33
28 29 30 31 32 32 32 32 32 32 32 33 33 34 34 34 34 34 34 34 34 35 36 36 36 36 36 36 35 35 35 35 35 35 36 36 36 36 36 36 36 37 37 37 37 36 36 35 35
29 29 30 31 32 32 32 32 32 32 32 33 34 34 34 34 34 34 34 35 35 35 37 38 38 37 37 37 36 37 36 37 36 37 37 38 38 37 37 37 38 38 38 38 39 38 38 37 38
30 30 30 30 31 31 31 32 33 32 33 33 34 34 34 34 34 34 35 36 37 37 37 38 39 39 38 38 37 37 38 38 37 38 38 39 39 39 39 39 39 39 39 39 40 40 39 39 39
29 29 30 30 31 31 32 32 33 33 34 34 34 35 35 35 35 35 35 35 36 36 37 38 39 39 39 38 39 39 39 40 39 39 39 39 39 39 39 40 41 41 41 41 40 40 40 40 40
29 29 30 30 31 32 32 32 33 34 34 34 34 35 34 34 35 35 35 35 36 36 36 37 38 39 39 39 39 39 40 40 39 39 39 39 39 39 40 39 40 42 42 42 42 41 40 41 41
29 30 30 30 31 32 33 32 33 33 34 34 34 34 34 34 34 35 35 34 35 36 36 37 38 37 37 38 38 39 39 40 39 39 38 39 39 39 40 40 40 41 42 42 43 43 42 41 40
28 29 29 30 30 31 32 31 32 33 32 32 32 32 33 33 33 33 34 34 35 36 37 37 37 37 37 37 38 38 39 40 39 38 38 39 39 40 39 39 39 40 41 42 42 42 42 41 40
28 28 29 29 30 30 30 30 30 31 31 32 32 32 32 32 32 32 33 34 34 35 36 36 36 36 37 38 38 39 39 40 39 39 39 40 41 42 41 40 39 38 40 41 41 41 40 40 40
28 28 28 27 28 29 29 28 29 29 30 30 30 31 31 31 32 33 33 34 35 35 36 37 37 37 38 39 39 40 40 40 40 40 40 41 41 41 40 40 39 39 39 39 40 40 39 39 40
27 27 26 26 26 27 27 27 27 28 28 29 29 30 31 31 32 32 33 33 33 33 34 36 36 37 38 39 40 41 40 40 40 40 40 40 41 40 40 40 40 40 40 39 39 39 39 39 40
25 25 26 26 25 25 26 26 25 26 27 27 28 29 30 30 31 32 32 33 33 33 34 35 35 37 38 39 40 40 40 40 40 40 40 41 41 41 41 40 40 40 41 40 39 40 40 39 39
24 24 24 24 24 25 25 26 25 24 25 26 27 28 29 29 30 31 32 32 32 33 34 34 35 36 37 37 38 38 39 39 39 41 41 42 42 41 41 40 39 39 40 40 39 39 38 38 38
23 23 23 23 24 24 24 25 24 23 24 25 26 27 28 29 29 30 31 31 31 32 32 32 33 34 34 35 35 35 37 38 38 40 41 41 41 40 40 39 39 39 39 40 39 37 37 37 37
22 23 23 24 23 23 23 24 23 23 23 24 25 25 26 27 28 29 30 30 31 31 30 31 31 31 31 32 32 33 36 37 38 38 39 40 40 39 39 40 40 40 40 39 39 37 37 36 36
21 22 23 24 24 23 23 23 22 22 23 24 25 25 25 25 26 27 27 28 29 29 29 30 30 29 29 29 30 32 34 36 37 37 37 38 39 39 40 40 40 39 39 39 38 37 37 36 35
22 22 23 24 24 24 23 23 22 22 22 23 24 24 24 24 25 26 26 27 27 25 26 27 28 27 27 28 29 30 32 34 35 35 36 37 37 38 40 41 40 40 39 38 37 38 37 36 35
21 22 23 23 24 24 24 23 22 22 23 23 23 23 22 23 24 25 25 26 25 24 24 25 26 26 26 26 27 27 30 31 32 33 35 36 37 37 38 39 39 38 37 37 37 36 36 35 35
21 22 23 24 24 25 25 24 23 23 23 24 24 23 23 23 24 25 26 26 25 24 23 24 24 24 25 25 26 28 29 30 31 31 32 33 33 35 36 37 37 37 37 37 37 36 36 36 35
20 21 22 23 23 24 25 24 23 23 23 23 23 23 23 24 25 26 26 26 24 23 23 23 22 23 24 25 26 26 27 27 28 29 31 31 31 32 34 34 35 36 36 36 36 36 37 37 36
Wind_Direction
248 249 248 247 249 250 251 253 252 252 253 256 257 259 261 263 264 265 264 264 264 264 263 262 260 259 258 258 258 258 258 259 260 261 262 264 263 260 258 259 261 262 262 262 263 264 266 265 266
248 249 249 249 250 250 250 252 251 253 255 256 259 261 262 263 263 264 264 264 264 264 263 261 260 259 258 258 257 257 258 259 259 260 262 263 262 262 260 260 261 263 263 263 263 265 266 266 266
249 250 251 251 252 252 254 255 254 255 256 257 259 261 263 264 264 264 265 265 266 265 264 262 260 258 257 257 257 256 257 258 258 259 260 261 262 262 261 262 262 263 264 263 264 264 265 266 266
251 251 251 253 254 255 256 256 256 258 258 258 259 261 263 265 266 266 266 266 265 264 263 262 260 258 257 256 256 255 256 257 257 257 258 259 260 260 261 262 262 263 263 263 263 263 265 265 266
251 250 252 256 257 257 257 257 257 259 260 259 260 260 262 265 267 268 267 266 265 263 262 261 259 258 258 257 256 255 255 256 256 257 258 259 259 260 261 262 263 263 263 263 263 263 264 265 266
251 252 254 256 258 258 259 259 260 260 260 260 261 262 262 264 266 267 266 265 265 263 261 260 260 259 258 258 257 255 255 255 255 256 258 259 259 260 261 263 264 263 263 264 263 263 264 266 267
253 254 256 257 259 260 260 259 259 260 262 263 264 264 264 264 265 266 265 264 263 264 262 261 261 260 259 259 258 256 255 254 255 256 257 258 259 260 261 263 264 262 263 264 264 264 264 265 266
256 256 257 258 259 261 261 261 260 261 263 264 265 266 266 266 267 268 266 264 263 263 262 261 261 261 260 258 258 257 255 254 255 257 257 257 258 259 260 261 263 264 264 264 265 265 265 265 266
257 258 259 260 260 262 262 262 261 262 263 264 266 267 267 267 268 268 267 265 263 262 261 260 261 261 261 259 257 256 254 254 255 257 258 258 258 259 260 261 262 264 264 264 264 265 265 265 266
259 261 261 262 262 263 263 263 263 263 264 265 266 267 268 267 267 267 266 266 264 262 261 261 261 261 260 258 256 255 253 254 255 256 258 259 259 259 260 260 262 264 264 264 264 265 265 265 266
261 263 263 263 264 263 263 264 264 264 265 266 267 268 269 269 267 265 265 265 265 263 262 262 261 262 261 259 256 254 253 254 255 257 258 259 260 260 260 261 262 262 263 264 265 264 265 266 267
263 264 265 265 264 263 263 264 264 265 266 267 267 268 269 269 268 266 264 265 264 263 263 262 262 262 261 259 256 254 253 254 255 257 258 259 261 262 262 261 261 262 262 263 264 264 265 266 267
265 265 266 266 264 263 263 264 264 265 266 267 267 268 268 268 267 266 265 264 264 265 265 263 263 262 261 259 257 255 254 255 257 258 259 260 262 263 263 262 262 261 261 262 264 265 266 267 267
266 267 267 266 265 264 264 264 265 265 266 267 268 269 269 268 267 268 267 266 264 265 265 263 262 261 261 260 258 256 254 254 256 257 258 259 260 262 262 263 263 262 263 263 263 264 265 266 266
265 267 267 266 266 266 265 264 265 265 266 267 267 269 270 270 269 268 268 266 265 265 265 263 261 260 260 260 258 256 254 254 256 258 258 259 260 261 262 263 263 264 264 264 265 265 265 265 266
266 266 266 266 267 267 266 265 265 265 265 267 268 270 271 271 270 269 268 267 264 265 266 264 262 261 260 259 258 256 255 254 256 257 258 259 260 261 262 263 264 264 264 265 265 265 266 266 266
266 267 267 267 267 267 267 267 266 266 266 267 269 271 272 271 271 269 268 267 266 266 266 266 263 261 259 258 256 255 256 256 254 255 257 258 260 262 263 264 266 266 266 266 266 265 266 266 266
269 269 269 268 268 268 268 267 267 266 266 267 269 271 272 273 272 270 268 268 266 265 266 267 266 263 259 257 255 255 256 256 255 255 258 259 260 262 264 266 267 268 268 267 267 267 266 266 266
272 272 272 271 270 269 267 267 267 266 266 267 269 270 272 274 273 272 270 269 268 267 267 268 268 264 259 256 256 255 256 256 257 256 258 259 260 262 264 266 267 268 268 267 267 267 266 266 265
274 273 272 271 272 270 268 268 267 265 265 266 268 270 272 274 274 273 272 271 270 270 269 269 268 264 261 258 258 255 256 257 259 258 259 260 260 263 264 265 266 266 267 268 268 268 265 265 265
274 271 270 272 273 272 272 270 269 266 266 267 269 272 274 275 275 275 273 271 270 269 269 268 266 264 262 262 261 257 256 256 258 258 259 261 261 262 262 262 263 265 266 267 269 267 266 267 266
275 271 271 273 273 273 274 274 270 269 269 269 270 273 276 277 278 277 276 274 272 269 269 269 267 267 264 263 262 259 258 255 256 257 259 260 260 261 261 262 262 263 265 267 269 267 266 267 266
274 273 272 273 275 274 275 275 273 273 273 272 271 274 277 279 280 280 279 278 275 272 270 269 269 269 267 264 261 259 257 255 255 256 257 259 259 260 260 261 262 264 265 267 268 268 266 265 265
274 272 272 276 278 275 276 276 275 276 277 275 274 277 279 280 280 281 281 280 278 275 272 272 270 269 267 264 261 261 258 256 256 256 256 258 259 260 259 260 262 264 265 267 269 270 266 265 265
272 273 276 279 278 276 276 276 278 280 280 279 279 281 281 281 281 282 283 282 281 278 274 270 269 268 267 264 263 262 260 259 258 258 258 258 259 259 259 259 261 264 265 266 267 269 267 266 265
272 274 278 281 282 279 276 279 280 282 283 285 283 282 282 282 283 285 285 284 283 281 275 269 267 268 269 267 267 265 262 260 259 259 259 259 259 260 260 260 261 263 262 263 266 268 267 266 266
275 277 279 280 283 281 276 279 278 282 285 286 286 285 284 283 284 286 286 285 285 283 277 271 268 269 271 271 272 268 264 263 262 261 261 261 262 262 261 261 261 261 261 263 265 266 265 267 266
277 278 279 278 282 283 278 280 282 283 284 285 286 287 288 288 287 288 287 285 285 284 278 275 270 270 270 272 274 271 267 265 264 262 262 262 263 262 261 262 262 260 262 263 264 265 266 266 266
280 279 279 278 280 281 281 282 285 285 286 287 287 287 287 289 290 289 286 286 284 283 279 276 273 272 271 273 274 272 268 266 264 263 263 264 264 263 264 262 260 260 263 263 264 264 265 266 266
281 279 279 279 280 281 282 284 285 287 287 287 287 287 287 288 288 288 285 283 280 279 277 275 273 271 272 273 273 272 269 267 265 265 265 266 266 265 266 263 261 261 262 264 264 265 267 268 269
Height
5831 5832 5833 5835 5836 5836 5837 5840 5841 5842 5843 5843 5843 5843 5843 5844 5846 5848 5846 5845 5845 5846 5846 5846 5846 5846 5847 5847 5848 5849 5849 5849 5850 5850 5851 5851 5851 5851 5852 5852 5852 5852 5853 5853 5853 5853 5852 5852 5852
5826 5828 5829 5830 5831 5832 5834 5836 5837 5838 5838 5838 5838 5838 5839 5839 5840 5840 5840 5839 5840 5840 5841 5841 5841 5841 5842 5843 5843 5844 5845 5846 5846 5847 5847 5847 5848 5848 5848 5849 5849 5849 5849 5849 5849 5849 5849 5849 5849
5822 5823 5825 5825 5826 5828 5830 5832 5833 5833 5834 5834 5834 5833 5834 5834 5835 5835 5834 5834 5834 5834 5835 5835 5836 5836 5837 5837 5838 5839 5840 5841 5842 5842 5843 5844 5844 5844 5845 5845 5845 5845 5845 5845 5845 5845 5845 5845 5845
5818 5819 5820 5821 5821 5824 5826 5827 5828 5828 5828 5828 5828 5828 5828 5829 5829 5829 5829 5828 5828 5828 5828 5829 5829 5830 5830 5831 5832 5833 5834 5835 5837 5837 5838 5839 5840 5840 5840 5841 5841 5841 5841 5841 5841 5841 5841 5841 5841
5813 5814 5815 5815 5817 5819 5821 5821 5822 5822 5822 5823 5823 5822 5822 5823 5823 5823 5822 5822 5821 5821 5821 5822 5823 5824 5824 5825 5826 5827 5828 5830 5831 5832 5833 5834 5835 5835 5835 5836 5836 5836 5836 5837 5837 5837 5837 5837 5837
5808 5809 5810 5810 5812 5814 5815 5815 5815 5816 5816 5816 5816 5816 5816 5816 5816 5815 5815 5815 5814 5814 5814 5815 5816 5817 5818 5818 5819 5820 5822 5823 5825 5826 5827 5828 5829 5830 5830 5831 5831 5831 5831 5832 5832 5832 5832 5832 5833
5803 5804 5804 5805 5806 5808 5809 5808 5809 5809 5809 5810 5809 5809 5809 5809 5809 5808 5807 5807 5807 5807 5807 5808 5808 5809 5810 5811 5812 5813 5815 5816 5818 5819 5820 5822 5823 5824 5825 5825 5825 5825 5826 5826 5826 5827 5827 5827 5827
5797 5798 5798 5799 5800 5801 5802 5801 5801 5802 5802 5802 5802 5802 5801 5802 5801 5800 5800 5799 5799 5799 5800 5800 5801 5802 5803 5804 5805 5806 5807 5809 5811 5812 5813 5815 5816 5817 5818 5819 5819 5820 5820 5820 5820 5821 5821 5821 5821
5790 5792 5792 5793 5794 5794 5794 5794 5794 5795 5795 5794 5794 5794 5794 5793 5793 5792 5791 5791 5791 5791 5792 5793 5793 5794 5795 5796 5797 5798 5800 5802 5803 5805 5806 5807 5809 5810 5811 5812 5813 5813 5814 5814 5814 5814 5814 5815 5815
5783 5784 5785 5786 5786 5787 5787 5787 5787 5787 5787 5786 5786 5785 5785 5784 5784 5784 5783 5783 5782 5783 5783 5784 5785 5785 5786 5787 5789 5790 5792 5794 5796 5797 5798 5800 5801 5803 5804 5805 5806 5806 5807 5807 5807 5807 5807 5808 5808
5776 5777 5778 5778 5778 5779 5779 5779 5779 5779 5779 5778 5778 5777 5776 5776 5775 5775 5774 5774 5774 5774 5774 5775 5776 5777 5777 5779 5780 5782 5784 5786 5787 5789 5790 5792 5793 5795 5796 5797 5798 5798 5798 5799 5799 5800 5800 5800 5801
5769 5770 5770 5770 5770 5770 5771 5771 5771 5771 5771 5770 5769 5768 5768 5767 5766 5766 5765 5765 5765 5765 5765 5766 5767 5767 5768 5769 5771 5773 5775 5778 5779 5781 5782 5784 5785 5786 5787 5788 5789 5790 5790 5791 5791 5792 5792 5792 5793
5762 5762 5762 5762 5761 5762 5762 5763 5763 5763 5762 5761 5760 5759 5759 5758 5758 5757 5756 5756 5755 5756 5756 5756 5757 5758 5759 5760 5762 5764 5766 5769 5771 5772 5774 5775 5777 5778 5778 5779 5780 5781 5781 5781 5782 5783 5783 5783 5783
5755 5755 5754 5754 5753 5754 5754 5754 5754 5755 5753 5753 5752 5751 5750 5749 5749 5748 5747 5747 5746 5746 5746 5746 5747 5748 5749 5751 5752 5755 5757 5760 5761 5763 5765 5766 5767 5768 5769 5770 5770 5771 5771 5772 5773 5773 5773 5774 5774
5748 5748 5747 5746 5745 5746 5746 5746 5746 5746 5745 5744 5743 5742 5741 5740 5739 5739 5738 5737 5737 5737 5736 5736 5736 5737 5739 5741 5743 5745 5748 5750 5751 5753 5755 5756 5757 5758 5759 5760 5760 5761 5761 5762 5763 5763 5763 5763 5763
5740 5740 5740 5739 5738 5737 5738 5738 5738 5736 5736 5736 5735 5733 5732 5731 5730 5729 5728 5728 5727 5727 5726 5726 5726 5727 5728 5730 5732 5735 5737 5739 5741 5743 5745 5746 5747 5748 5749 5749 5750 5751 5751 5751 5752 5753 5753 5754 5754
5733 5732 5732 5731 5730 5729 5728 5730 5730 5727 5727 5727 5726 5725 5723 5722 5721 5720 5719 5718 5717 5717 5716 5715 5715 5715 5717 5719 5722 5725 5727 5729 5731 5733 5735 5736 5737 5738 5739 5739 5740 5740 5740 5741 5741 5742 5743 5743 5744
5726 5725 5724 5723 5722 5721 5720 5721 5720 5719 5718 5718 5717 5716 5715 5714 5712 5711 5710 5709 5708 5707 5706 5705 5705 5705 5706 5709 5712 5715 5717 5719 5720 5722 5724 5726 5727 5728 5729 5729 5730 5729 5730 5730 5730 5731 5732 5732 5733
5717 5717 5716 5715 5714 5713 5712 5712 5711 5710 5710 5709 5709 5708 5707 5705 5704 5702 5701 5700 5699 5698 5697 5696 5696 5696 5698 5700 5702 5705 5707 5708 5710 5712 5714 5715 5716 5718 5719 5719 5719 5719 5719 5719 5719 5720 5721 5721 5722
5709 5709 5708 5708 5706 5705 5704 5704 5703 5702 5701 5701 5700 5700 5698 5697 5695 5694 5693 5691 5690 5689 5689 5688 5688 5688 5689 5690 5692 5694 5696 5698 5700 5702 5704 5705 5706 5707 5708 5709 5709 5709 5709 5709 5709 5710 5710 5711 5711
5702 5702 5701 5700 5699 5697 5697 5697 5695 5695 5694 5693 5693 5692 5691 5689 5688 5686 5685 5683 5682 5681 5680 5680 5680 5680 5680 5681 5682 5684 5685 5688 5690 5692 5693 5694 5695 5697 5698 5698 5699 5699 5699 5699 5699 5699 5699 5700 5699
5696 5695 5694 5693 5692 5691 5690 5688 5689 5688 5686 5686 5685 5684 5683 5681 5680 5678 5676 5675 5674 5673 5672 5671 5671 5671 5671 5672 5672 5673 5675 5678 5680 5682 5683 5684 5685 5686 5687 5688 5688 5689 5689 5689 5689 5688 5688 5688 5688
5689 5688 5687 5686 5685 5684 5683 5681 5682 5681 5679 5679 5678 5677 5675 5674 5672 5670 5669 5667 5666 5665 5664 5663 5662 5662 5662 5662 5662 5663 5664 5666 5668 5670 5672 5673 5674 5675 5676 5677 5678 5678 5679 5679 5678 5678 5677 5677 5677
5682 5682 5681 5679 5678 5677 5677 5674 5674 5673 5673 5671 5670 5669 5668 5666 5664 5662 5661 5659 5658 5657 5655 5654 5654 5653 5653 5652 5652 5653 5654 5656 5658 5659 5661 5662 5664 5664 5665 5667 5668 5668 5668 5668 5668 5667 5667 5667 5667
5676 5675 5674 5672 5671 5671 5670 5667 5669 5667 5666 5664 5663 5662 5660 5658 5657 5655 5654 5652 5650 5649 5647 5646 5645 5645 5644 5643 5643 5644 5645 5646 5648 5649 5650 5652 5653 5654 5655 5656 5657 5657 5658 5658 5658 5658 5657 5657 5657
5669 5669 5668 5666 5665 5664 5663 5661 5663 5661 5659 5657 5656 5654 5653 5651 5650 5648 5646 5644 5642 5640 5639 5638 5637 5636 5636 5636 5636 5635 5636 5637 5638 5638 5639 5641 5642 5644 5644 5645 5646 5646 5647 5648 5648 5648 5648 5647 5647
5664 5663 5662 5661 5658 5657 5657 5656 5657 5655 5653 5651 5649 5647 5646 5644 5643 5641 5639 5637 5635 5633 5631 5630 5629 5628 5628 5628 5628 5627 5627 5628 5628 5629 5629 5630 5632 5633 5633 5634 5635 5635 5637 5637 5638 5638 5638 5637 5637
5659 5657 5656 5654 5652 5650 5650 5650 5650 5649 5647 5645 5643 5641 5640 5638 5635 5634 5632 5630 5627 5625 5624 5622 5621 5621 5620 5620 5620 5619 5619 5619 5619 5620 5620 5621 5621 5622 5623 5623 5624 5625 5626 5627 5627 5628 5628 5628 5628
5653 5652 5649 5648 5647 5645 5643 5647 5645 5643 5641 5639 5637 5635 5633 5631 5629 5627 5624 5622 5620 5618 5616 5615 5614 5613 5613 5613 5612 5612 5611 5611 5611 5611 5611 5611 5612 5612 5613 5613 5614 5615 5616 5617 5617 5618 5618 5618 5618
5646 5645 5644 5643 5641 5639 5638 5642 5639 5637 5634 5632 5630 5628 5626 5624 5622 5620 5618 5615 5613 5611 5610 5609 5608 5607 5607 5606 5605 5604 5603 5603 5603 5603 5603 5603 5603 5603 5603 5603 5604 5605 5606 5607 5608 5608 5608 5608 5608